カタログに戻る

OPS 4682 DEB

運用中PO
NORAD 38406·DEBRIS·🇺🇸 United States

打ち上げ Apr 3, 1965 から Vandenberg Space Force Base

Loading…

次のパス (今後24時間)

TLE

経年Source: Space-Track

元期: Sep 10, 2026, 13:38 UTC

1 38406U 65027DK  26253.56814888  .00000462  00000-0  15017-2 0  9995
2 38406  90.2519  13.0823 0024397  28.7156 331.5304 13.00350942566362

AllMySatでOPS 4682 DEBをリアルタイム追跡

Download on the App Store